Terminal Aerodrome Forecast
Issued by NWS

Home | Current Version | Previous Version | Graphics & Text | Print | Product List | Glossary On
Versions: 1 2 3 4 5 6 7 8 9 10 11 12 13 14 15 16 17 18 19
000
FTUS43 KICT 292326
TAFCNU
TAF
KCNU 292326Z 3000/3024 16006KT P6SM SKC
     FM301300 19008KT P6SM SCT200
     FM301600 27012KT P6SM SCT200
     FM301900 34015G22KT P6SM SCT200=

USA.gov is the U.S. government's official web portal to all federal, state and local government web resources and services.